Miscellaneous Local Product
Issued by NWS North Platte, NE

Home | Current Version | Previous Version | Graphics & Text | Print | Product List | Glossary On
Versions: 1 2 3 4 5 6 7 8 9 10 11 12 13 14 15 16 17 18 19 20 21 22 23 24 25 26 27 28 29 30 31 32 33 34 35 36 37 38 39 40 41 42 43 44 45 46 47 48 49 50
517
AXUS43 KLBF 242010
MISLBF


WESTERN AND NORTH CENTRAL NEBRASKA HOURLY WEATHER ROUNDUP
NATIONAL WEATHER SERVICE NORTH PLATTE NE
200 PM CST FRI FEB 24 2017

NOTE: "FAIR" INDICATES FEW OR NO CLOUDS BELOW 12,000 FEET WITH NO
SIGNIFICANT WEATHER AND/OR OBSTRUCTIONS TO VISIBILITY.

NOTE: STATIONS NOT REPORTING VARIABLES SUCH AS SKY/WEATHER OR
PRESSURE ARE PROVIDED BY RAWS AND APRS NETWORKS AND ARE NOT UNDER
NATIONAL WEATHER SERVICE QUALITY CONTROL.

...OBSERVATIONS IN AND NEAR THE EASTERN PANHANDLE OF NEBRASKA...

CITY           SKY/WX    TMP DP  RH WIND       PRES   REMARKS
PINE RIDGE     CLOUDY    22  17  81 CALM      30.06F
CHADRON        CLOUDY    22  15  75 NW3       30.07F
ALLIANCE       CLOUDY    21  16  81 N9        30.01S WCI  11
SIDNEY         CLOUDY    23  17  78 N9        30.00S WCI  13
CRESCENT LAKE    N/A     23  17  78 N9          N/A  WCI  13
$$

...OBSERVATIONS IN NORTHERN NEBRASKA AND FAR SOUTHERN SOUTH DAKOTA...

CITY           SKY/WX    TMP DP  RH WIND       PRES   REMARKS
WINNER         CLOUDY    27  15  61 N20       30.06S WCI  13
VALENTINE      CLOUDY    22  13  68 N14       30.05F WCI   9
THEDFORD       PTSUNNY   22  14  71 N16       30.03S WCI   8
AINSWORTH      CLOUDY    22  17  79 N24       30.03S WCI   6
O`NEILL        CLOUDY    25  17  73 N24G30    30.00S WCI   9
ORD            CLOUDY    23  13  65 N28G35    29.98R WCI   6
BROKEN BOW     MOSUNNY   23  14  68 N23G32    29.99S WCI   7
VALENTINE NWR    N/A     21  18  86 N13         N/A  WCI   9
BUTTE            N/A     23  16  74 NW20G26     N/A  WCI   8
HALSEY           N/A     23  14  68 NW12G21     N/A  WCI  12
CHAMBERS         N/A     32  15  49 N6          N/A  WCI  26
EWING            N/A     22  19  89 N21G29      N/A  WCI   7
$$

...OBSERVATIONS IN SOUTHWEST NEBRASKA AND FAR NORTHEAST COLORADO...

CITY           SKY/WX    TMP DP  RH WIND       PRES   REMARKS
HOLYOKE        FAIR      32  23  69 N9        30.01S WCI  24
IMPERIAL       CLOUDY    25  18  74 N18       30.01F WCI  11
OGALLALA       CLOUDY    27  17  67 N14       30.02S WCI  15
NORTH PLATTE   CLOUDY    24  11  57 N17G26    30.03S WCI  11
MCCOOK         CLOUDY    28  19  69 N20       30.00R WCI  15
LEXINGTON      CLOUDY    24  14  65 N25       29.99S WCI   8
STAPLETON        N/A     23  15  73 CALM        N/A
GOTHENBURG       N/A     24  13  63 NW14        N/A  WCI  12
CALLAWAY         N/A     22  17  80 N18         N/A  WCI   8
$$

...OBSERVATIONS IN CENTRAL LINCOLN COUNTY AREA...

CITY           SKY/WX    TMP DP  RH WIND       PRES   REMARKS
N.P. AIRPORT   CLOUDY    24  11  57 N17G26    30.03S WCI  11
N.P. DOWNTOWN    N/A     22  13  67 N12G20      N/A  WCI  11
N.P. SOUTHEAST   N/A     24  13  63 N10G20      N/A  WCI  14
N.P. HILLCREST   N/A     22  13  67 N20G26      N/A  WCI   7
$$

...SOME OBSERVATIONS FROM AROUND THE REGION...

CITY           SKY/WX    TMP DP  RH WIND       PRES   REMARKS
LARAMIE        LGT SNOW  16   9  74 SE10      29.81S WCI   4
CHEYENNE       CLOUDY    19  10  68 E6        29.90F WCI  11
DENVER         PTSUNNY   23  13  65 SE3       29.93F
AKRON          CLOUDY    23  18  81 N7        29.97S WCI  15
SCOTTSBLUFF    CLOUDY    23  17  78 CALM      30.03S HAZE
RAPID CITY     CLOUDY    21  16  81 S3        30.05F
BISMARCK       SUNNY     30  18  60 N12       30.13F WCI  20
PIERRE         CLOUDY    30  13  49 N18       30.08F WCI  18
SIOUX FALLS    CLOUDY    27  14  58 N25G35    29.91F WCI  12
OMAHA          SNOW      25  19  78 N24G37    29.84R VSB 1/4 WCI   9
GRAND ISLAND   CLOUDY    22  16  78 N28       29.97R WCI   4
KANSAS CITY    FLURRIES  33  29  85 NW20G29   29.75R WCI  21
WICHITA        CLOUDY    36  21  54 NW25G31   29.90R WCI  24
OKLAHOMA CITY  SUNNY     50  24  36 N21G28    29.89F
DALLAS         MOSUNNY   60  33  36 NW13G23   29.85F
AMARILLO       SUNNY     44  16  32 NW15      29.95S
DODGE CITY     CLOUDY    36  19  50 N23G32    29.94R WCI  24
HAYS           FLURRIES  32  24  72 N23       29.96S WCI  19
GOODLAND       CLOUDY    28  22  78 N18       29.97S WCI  15
$$




USA.gov is the U.S. government's official web portal to all federal, state and local government web resources and services.